| time (UTC) | temp C | wind direction | speed KPH | gust KPH | rain 1hr cm | rain 24hr cm | rain mn cm | humidity % | barometer mb |
| 20260505075018 | 16 | 246 | 3.2 | 8.0 | 0.00 | 0.00 | 0.00 | 68 | 1010.8 |
| 20260505074518 | 16 | 259 | 1.6 | 6.4 | 0.00 | 0.00 | 0.00 | 68 | 1010.7 |
| 20260505074017 | 16 | 250 | 6.4 | 12.9 | 0.00 | 0.00 | 0.00 | 68 | 1010.7 |
| 20260505073517 | 16 | 233 | 0.0 | 3.2 | 0.00 | 0.00 | 0.00 | 68 | 1010.7 |
| 20260505073018 | 16 | 251 | 4.8 | 6.4 | 0.00 | 0.00 | 0.00 | 68 | 1010.7 |
| 20260505072518 | 16 | 257 | 3.2 | 8.0 | 0.00 | 0.00 | 0.00 | 68 | 1010.8 |
| 20260505072017 | 16 | 255 | 4.8 | 11.3 | 0.00 | 0.00 | 0.00 | 68 | 1010.8 |
| 20260505071517 | 16 | 251 | 4.8 | 9.7 | 0.00 | 0.00 | 0.00 | 68 | 1010.8 |
| 20260505071018 | 16 | 258 | 8.0 | 14.5 | 0.00 | 0.00 | 0.00 | 68 | 1010.7 |
| 20260505070519 | 16 | 256 | 4.8 | 11.3 | 0.00 | 0.00 | 0.00 | 67 | 1010.8 |
| 20260505070017 | 16 | 243 | 6.4 | 11.3 | 0.00 | 0.00 | 0.00 | 67 | 1010.8 |
| 20260505065517 | 16 | 285 | 3.2 | 6.4 | 0.00 | 0.00 | 0.00 | 67 | 1010.7 |
| 20260505065017 | 16 | 265 | 4.8 | 12.9 | 0.00 | 0.00 | 0.00 | 67 | 1010.7 |
| 20260505064517 | 16 | 263 | 6.4 | 16.1 | 0.00 | 0.00 | 0.00 | 66 | 1010.5 |
| 20260505064018 | 17 | 257 | 4.8 | 12.9 | 0.00 | 0.00 | 0.00 | 66 | 1010.6 |
| 20260505063518 | 17 | 236 | 4.8 | 8.0 | 0.00 | 0.00 | 0.00 | 65 | 1010.5 |
| 20260505063020 | 17 | 244 | 6.4 | 9.7 | 0.00 | 0.00 | 0.00 | 65 | 1010.5 |
| 20260505062517 | 17 | 264 | 6.4 | 14.5 | 0.00 | 0.00 | 0.00 | 64 | 1010.6 |
| 20260505062017 | 17 | 242 | 8.0 | 11.3 | 0.00 | 0.00 | 0.00 | 64 | 1010.7 |
| 20260505061518 | 17 | 252 | 6.4 | 9.7 | 0.00 | 0.00 | 0.00 | 64 | 1010.7 |
| 20260505061018 | 17 | 251 | 3.2 | 6.4 | 0.00 | 0.00 | 0.00 | 63 | 1010.7 |
| 20260505060517 | 17 | 237 | 4.8 | 11.3 | 0.00 | 0.00 | 0.00 | 63 | 1010.7 |
| 20260505060018 | 17 | 243 | 6.4 | 9.7 | 0.00 | 0.00 | 0.00 | 63 | 1010.7 |
| 20260505055517 | 17 | 252 | 6.4 | 12.9 | 0.00 | 0.00 | 0.00 | 62 | 1010.7 |
| 20260505055017 | 17 | 251 | 4.8 | 9.7 | 0.00 | 0.00 | 0.00 | 62 | 1010.7 |
| 20260505054517 | 17 | 243 | 6.4 | 11.3 | 0.00 | 0.00 | 0.00 | 61 | 1010.8 |
| 20260505054018 | 17 | 252 | 6.4 | 12.9 | 0.00 | 0.00 | 0.00 | 61 | 1010.8 |
| 20260505053518 | 17 | 255 | 6.4 | 12.9 | 0.00 | 0.00 | 0.00 | 61 | 1010.8 |
| 20260505053019 | 17 | 258 | 3.2 | 11.3 | 0.00 | 0.00 | 0.00 | 60 | 1010.8 |
| 20260505052517 | 17 | 246 | 3.2 | 6.4 | 0.00 | 0.00 | 0.00 | 60 | 1010.8 |
| 20260505052018 | 17 | 240 | 6.4 | 12.9 | 0.00 | 0.00 | 0.00 | 60 | 1010.8 |
| 20260505051518 | 17 | 248 | 4.8 | 9.7 | 0.00 | 0.00 | 0.00 | 60 | 1010.9 |
| 20260505051017 | 17 | 248 | 4.8 | 11.3 | 0.00 | 0.00 | 0.00 | 60 | 1010.9 |
| 20260505050517 | 17 | 222 | 3.2 | 6.4 | 0.00 | 0.00 | 0.00 | 60 | 1010.9 |
| 20260505041517 | 17 | 229 | 3.2 | 6.4 | 0.00 | 0.00 | 0.00 | 61 | 1010.9 |
| 20260505041017 | 17 | 232 | 4.8 | 9.7 | 0.00 | 0.00 | 0.00 | 61 | 1010.9 |
| 20260505040518 | 17 | 231 | 3.2 | 8.0 | 0.00 | 0.00 | 0.00 | 61 | 1010.9 |
| 20260505040018 | 17 | 220 | 3.2 | 8.0 | 0.00 | 0.00 | 0.00 | 61 | 1010.9 |
| 20260505035518 | 17 | 212 | 3.2 | 9.7 | 0.00 | 0.00 | 0.00 | 61 | 1010.9 |
| 20260505035017 | 17 | 211 | 4.8 | 6.4 | 0.00 | 0.00 | 0.00 | 60 | 1011.0 |
| 20260505034517 | 17 | 224 | 4.8 | 9.7 | 0.00 | 0.00 | 0.00 | 61 | 1010.9 |
| 20260505034017 | 17 | 243 | 4.8 | 9.7 | 0.00 | 0.00 | 0.00 | 61 | 1010.9 |
| 20260505033517 | 17 | 230 | 3.2 | 6.4 | 0.00 | 0.00 | 0.00 | 61 | 1010.9 |
| 20260505033017 | 17 | 247 | 3.2 | 8.0 | 0.00 | 0.00 | 0.00 | 60 | 1010.9 |
| 20260505032517 | 17 | 235 | 4.8 | 8.0 | 0.00 | 0.00 | 0.00 | 60 | 1010.9 |
| 20260505032017 | 17 | 245 | 4.8 | 9.7 | 0.00 | 0.00 | 0.00 | 60 | 1010.9 |
| 20260505031517 | 17 | 217 | 1.6 | 4.8 | 0.00 | 0.00 | 0.00 | 59 | 1010.9 |
| 20260505031017 | 17 | 208 | 3.2 | 6.4 | 0.00 | 0.00 | 0.00 | 58 | 1010.8 |
| 20260505030517 | 17 | 238 | 3.2 | 8.0 | 0.00 | 0.00 | 0.00 | 56 | 1010.9 |
| 20260505030017 | 17 | 247 | 3.2 | 9.7 | 0.00 | 0.00 | 0.00 | 55 | 1010.9 |
| 20260505025518 | 17 | 231 | 3.2 | 9.7 | 0.00 | 0.00 | 0.00 | 55 | 1011.0 |
| 20260505025017 | 17 | 262 | 4.8 | 8.0 | 0.00 | 0.00 | 0.00 | 54 | 1011.1 |
| 20260505024518 | 17 | 235 | 3.2 | 4.8 | 0.00 | 0.00 | 0.00 | 54 | 1011.1 |
| 20260505024018 | 18 | 217 | 3.2 | 8.0 | 0.00 | 0.00 | 0.00 | 54 | 1011.1 |
| 20260505023517 | 18 | 236 | 3.2 | 6.4 | 0.00 | 0.00 | 0.00 | 52 | 1011.1 |
| 20260505023018 | 18 | 217 | 4.8 | 9.7 | 0.00 | 0.00 | 0.00 | 52 | 1011.2 |
| 20260505022517 | 18 | 223 | 3.2 | 6.4 | 0.00 | 0.00 | 0.00 | 51 | 1011.1 |
| 20260505022017 | 18 | 230 | 6.4 | 12.9 | 0.00 | 0.00 | 0.00 | 50 | 1011.1 |
| 20260505021517 | 18 | 243 | 3.2 | 6.4 | 0.00 | 0.00 | 0.00 | 49 | 1011.1 |
| 20260505021018 | 18 | 224 | 3.2 | 6.4 | 0.00 | 0.00 | 0.00 | 49 | 1011.1 |
| 20260505020518 | 18 | 241 | 4.8 | 9.7 | 0.00 | 0.00 | 0.00 | 49 | 1011.1 |
| 20260505020017 | 19 | 246 | 1.6 | 6.4 | 0.00 | 0.00 | 0.00 | 49 | 1010.9 |
| 20260505015517 | 19 | 221 | 6.4 | 12.9 | 0.00 | 0.00 | 0.00 | 48 | 1010.9 |
| 20260505015018 | 19 | 217 | 3.2 | 8.0 | 0.00 | 0.00 | 0.00 | 48 | 1010.8 |
| 20260505014518 | 19 | 208 | 3.2 | 6.4 | 0.00 | 0.00 | 0.00 | 48 | 1010.8 |
| 20260505014017 | 19 | 232 | 4.8 | 9.7 | 0.00 | 0.00 | 0.00 | 47 | 1010.8 |
| 20260505013519 | 19 | 225 | 4.8 | 8.0 | 0.00 | 0.00 | 0.00 | 48 | 1010.9 |
| 20260505013018 | 19 | 226 | 4.8 | 8.0 | 0.00 | 0.00 | 0.00 | 48 | 1010.9 |
| 20260505012517 | 19 | 214 | 1.6 | 4.8 | 0.00 | 0.00 | 0.00 | 48 | 1010.9 |
| 20260505012017 | 19 | 248 | 6.4 | 11.3 | 0.00 | 0.00 | 0.00 | 48 | 1010.8 |
| 20260505011518 | 20 | 222 | 3.2 | 11.3 | 0.00 | 0.00 | 0.00 | 48 | 1010.7 |
| 20260505011017 | 20 | 243 | 6.4 | 9.7 | 0.00 | 0.00 | 0.00 | 47 | 1010.8 |
| 20260505010517 | 20 | 247 | 6.4 | 12.9 | 0.00 | 0.00 | 0.00 | 46 | 1010.7 |
| 20260505010017 | 20 | 217 | 6.4 | 14.5 | 0.00 | 0.00 | 0.00 | 46 | 1010.7 |
| 20260505005517 | 20 | 248 | 6.4 | 14.5 | 0.00 | 0.00 | 0.00 | 45 | 1010.6 |
| 20260505005017 | 20 | 235 | 4.8 | 9.7 | 0.00 | 0.00 | 0.00 | 45 | 1010.5 |
| 20260505004518 | 20 | 223 | 4.8 | 14.5 | 0.00 | 0.00 | 0.00 | 44 | 1010.4 |
| 20260505004017 | 20 | 208 | 4.8 | 12.9 | 0.00 | 0.00 | 0.00 | 44 | 1010.3 |
| 20260505003518 | 20 | 231 | 4.8 | 11.3 | 0.00 | 0.00 | 0.00 | 44 | 1010.3 |
| 20260505003017 | 20 | 225 | 4.8 | 8.0 | 0.00 | 0.00 | 0.00 | 43 | 1010.3 |
| 20260505002518 | 21 | 221 | 4.8 | 11.3 | 0.00 | 0.00 | 0.00 | 43 | 1010.2 |
| 20260505002017 | 21 | 239 | 4.8 | 9.7 | 0.00 | 0.00 | 0.00 | 43 | 1010.2 |
| 20260505001517 | 21 | 211 | 3.2 | 6.4 | 0.00 | 0.00 | 0.00 | 43 | 1010.2 |
| 20260505001017 | 21 | 231 | 3.2 | 6.4 | 0.00 | 0.00 | 0.00 | 43 | 1010.2 |
| 20260505000518 | 21 | 204 | 3.2 | 6.4 | 0.00 | 0.00 | 0.00 | 42 | 1010.1 |
| 20260505000018 | 21 | 216 | 6.4 | 14.5 | 0.00 | 0.00 | 0.00 | 42 | 1010.1 |
| 20260504235517 | 21 | 226 | 6.4 | 11.3 | 0.00 | 0.00 | 0.00 | 41 | 1010.1 |
| 20260504235017 | 21 | 232 | 6.4 | 12.9 | 0.00 | 0.00 | 0.00 | 40 | 1010.0 |
| 20260504234518 | 22 | 213 | 4.8 | 9.7 | 0.00 | 0.00 | 0.00 | 38 | 1010.0 |
| 20260504234019 | 22 | 217 | 4.8 | 9.7 | 0.00 | 0.00 | 0.00 | 37 | 1009.9 |
| 20260504233518 | 22 | 235 | 6.4 | 9.7 | 0.00 | 0.00 | 0.00 | 38 | 1009.8 |
| 20260504233017 | 22 | 258 | 6.4 | 14.5 | 0.00 | 0.00 | 0.00 | 37 | 1009.8 |
| 20260504232519 | 22 | 250 | 9.7 | 12.9 | 0.00 | 0.00 | 0.00 | 37 | 1009.8 |
| 20260504232017 | 22 | 245 | 6.4 | 11.3 | 0.00 | 0.00 | 0.00 | 37 | 1009.8 |
| 20260504231518 | 22 | 242 | 6.4 | 9.7 | 0.00 | 0.00 | 0.00 | 37 | 1009.9 |
| 20260504231018 | 22 | 257 | 8.0 | 12.9 | 0.00 | 0.00 | 0.00 | 36 | 1009.8 |
| 20260504230518 | 22 | 252 | 4.8 | 6.4 | 0.00 | 0.00 | 0.00 | 36 | 1009.8 |
| 20260504230017 | 22 | 265 | 6.4 | 11.3 | 0.00 | 0.00 | 0.00 | 35 | 1009.8 |
| 20260504225517 | 22 | 229 | 4.8 | 8.0 | 0.00 | 0.00 | 0.00 | 35 | 1009.8 |
| 20260504225017 | 22 | 194 | 1.6 | 3.2 | 0.00 | 0.00 | 0.00 | 35 | 1009.8 |
| 20260504224517 | 22 | 253 | 3.2 | 9.7 | 0.00 | 0.00 | 0.00 | 35 | 1009.9 |
| 20260504224018 | 22 | 244 | 6.4 | 17.7 | 0.00 | 0.00 | 0.00 | 35 | 1009.9 |
| 20260504223518 | 22 | 224 | 3.2 | 8.0 | 0.00 | 0.00 | 0.00 | 35 | 1010.0 |
| 20260504223017 | 22 | 230 | 3.2 | 9.7 | 0.00 | 0.00 | 0.00 | 35 | 1009.9 |
| 20260504222517 | 22 | 227 | 8.0 | 14.5 | 0.00 | 0.00 | 0.00 | 35 | 1009.8 |
| 20260504222017 | 23 | 250 | 8.0 | 14.5 | 0.00 | 0.00 | 0.00 | 35 | 1009.9 |
| 20260504221517 | 23 | 245 | 9.7 | 17.7 | 0.00 | 0.00 | 0.00 | 34 | 1010.0 |
| 20260504221017 | 23 | 252 | 9.7 | 14.5 | 0.00 | 0.00 | 0.00 | 34 | 1010.0 |
| 20260504220517 | 23 | 236 | 4.8 | 9.7 | 0.00 | 0.00 | 0.00 | 34 | 1009.9 |
| 20260504220018 | 23 | 263 | 4.8 | 9.7 | 0.00 | 0.00 | 0.00 | 34 | 1010.0 |
| 20260504215520 | 23 | 245 | 8.0 | 16.1 | 0.00 | 0.00 | 0.00 | 33 | 1010.1 |
| 20260504215018 | 23 | 243 | 6.4 | 9.7 | 0.00 | 0.00 | 0.00 | 33 | 1010.0 |
| 20260504214518 | 23 | 258 | 1.6 | 4.8 | 0.00 | 0.00 | 0.00 | 33 | 1010.0 |
| 20260504214018 | 23 | 249 | 6.4 | 17.7 | 0.00 | 0.00 | 0.00 | 33 | 1010.1 |
| 20260504213517 | 23 | 271 | 4.8 | 8.0 | 0.00 | 0.00 | 0.00 | 33 | 1010.1 |
| 20260504213018 | 23 | 254 | 8.0 | 17.7 | 0.00 | 0.00 | 0.00 | 33 | 1010.2 |
| 20260504212518 | 23 | 243 | 4.8 | 9.7 | 0.00 | 0.00 | 0.00 | 33 | 1010.2 |
| 20260504212017 | 23 | 246 | 6.4 | 12.9 | 0.00 | 0.00 | 0.00 | 33 | 1010.2 |
| 20260504211519 | 23 | 232 | 9.7 | 19.3 | 0.00 | 0.00 | 0.00 | 33 | 1010.2 |
| 20260504211017 | 23 | 245 | 11.3 | 19.3 | 0.00 | 0.00 | 0.00 | 33 | 1010.0 |
| 20260504210517 | 23 | 259 | 6.4 | 11.3 | 0.00 | 0.00 | 0.00 | 33 | 1010.1 |
| 20260504210017 | 23 | 250 | 8.0 | 14.5 | 0.00 | 0.00 | 0.00 | 33 | 1010.1 |
| 20260504205517 | 23 | 240 | 8.0 | 17.7 | 0.00 | 0.00 | 0.00 | 33 | 1010.1 |
| 20260504205017 | 23 | 252 | 6.4 | 11.3 | 0.00 | 0.00 | 0.00 | 33 | 1010.2 |
| 20260504204517 | 23 | 236 | 4.8 | 12.9 | 0.00 | 0.00 | 0.00 | 33 | 1010.2 |
| 20260504204018 | 23 | 255 | 8.0 | 19.3 | 0.00 | 0.00 | 0.00 | 33 | 1010.2 |
| 20260504203517 | 23 | 251 | 6.4 | 12.9 | 0.00 | 0.00 | 0.00 | 32 | 1010.3 |
| 20260504203017 | 23 | 251 | 9.7 | 20.9 | 0.00 | 0.00 | 0.00 | 32 | 1010.2 |
| 20260504202518 | 23 | 240 | 6.4 | 12.9 | 0.00 | 0.00 | 0.00 | 32 | 1010.2 |
| 20260504202018 | 23 | 253 | 6.4 | 14.5 | 0.00 | 0.00 | 0.00 | 33 | 1010.2 |
| 20260504201517 | 23 | 247 | 4.8 | 9.7 | 0.00 | 0.00 | 0.00 | 32 | 1010.2 |
| 20260504201017 | 23 | 182 | 3.2 | 8.0 | 0.00 | 0.00 | 0.00 | 33 | 1010.3 |
| 20260504200518 | 23 | 257 | 9.7 | 16.1 | 0.00 | 0.00 | 0.00 | 32 | 1010.3 |
| 20260504200017 | 23 | 264 | 4.8 | 11.3 | 0.00 | 0.00 | 0.00 | 33 | 1010.2 |
| 20260504195517 | 23 | 267 | 8.0 | 11.3 | 0.00 | 0.00 | 0.00 | 33 | 1010.3 |
| 20260504195018 | 23 | 240 | 9.7 | 16.1 | 0.00 | 0.00 | 0.00 | 33 | 1010.3 |
| 20260504194519 | 23 | 253 | 6.4 | 20.9 | 0.00 | 0.00 | 0.00 | 32 | 1010.5 |
| 20260504194019 | 23 | 248 | 9.7 | 16.1 | 0.00 | 0.00 | 0.00 | 32 | 1010.6 |
| 20260504193517 | 23 | 230 | 9.7 | 12.9 | 0.00 | 0.00 | 0.00 | 32 | 1010.6 |
| 20260504193018 | 23 | 261 | 6.4 | 14.5 | 0.00 | 0.00 | 0.00 | 32 | 1010.7 |
| 20260504192517 | 22 | 259 | 9.7 | 16.1 | 0.00 | 0.00 | 0.00 | 32 | 1010.7 |
| 20260504192018 | 23 | 233 | 6.4 | 8.0 | 0.00 | 0.00 | 0.00 | 32 | 1010.8 |
| 20260504191517 | 23 | 233 | 6.4 | 16.1 | 0.00 | 0.00 | 0.00 | 32 | 1010.8 |
| 20260504191017 | 23 | 238 | 6.4 | 12.9 | 0.00 | 0.00 | 0.00 | 32 | 1010.9 |
| 20260504190517 | 23 | 234 | 8.0 | 14.5 | 0.00 | 0.00 | 0.00 | 31 | 1011.0 |
| 20260504190018 | 23 | 247 | 6.4 | 11.3 | 0.00 | 0.00 | 0.00 | 32 | 1011.0 |
| 20260504185518 | 23 | 223 | 11.3 | 16.1 | 0.00 | 0.00 | 0.00 | 31 | 1011.2 |
| 20260504185018 | 22 | 272 | 4.8 | 8.0 | 0.00 | 0.00 | 0.00 | 32 | 1011.2 |
| 20260504184518 | 23 | 246 | 11.3 | 16.1 | 0.00 | 0.00 | 0.00 | 32 | 1011.3 |
| 20260504184017 | 23 | 200 | 6.4 | 11.3 | 0.00 | 0.00 | 0.00 | 31 | 1011.4 |
| 20260504183518 | 23 | 264 | 6.4 | 11.3 | 0.00 | 0.00 | 0.00 | 31 | 1011.4 |
| 20260504183017 | 22 | 241 | 9.7 | 19.3 | 0.00 | 0.00 | 0.00 | 31 | 1011.4 |
| 20260504182519 | 22 | 244 | 8.0 | 17.7 | 0.00 | 0.00 | 0.00 | 32 | 1011.4 |
| 20260504182021 | 22 | 318 | 3.2 | 9.7 | 0.00 | 0.00 | 0.00 | 32 | 1011.5 |
| 20260504181518 | 22 | 237 | 9.7 | 14.5 | 0.00 | 0.00 | 0.00 | 32 | 1011.7 |
| 20260504181017 | 22 | 243 | 6.4 | 12.9 | 0.00 | 0.00 | 0.00 | 32 | 1011.7 |
| 20260504180517 | 22 | 246 | 8.0 | 16.1 | 0.00 | 0.00 | 0.00 | 31 | 1011.8 |
| 20260504180018 | 22 | 226 | 3.2 | 8.0 | 0.00 | 0.00 | 0.00 | 32 | 1011.9 |
| 20260504175517 | 22 | 244 | 11.3 | 16.1 | 0.00 | 0.00 | 0.00 | 32 | 1011.9 |
| 20260504175018 | 22 | 245 | 11.3 | 17.7 | 0.00 | 0.00 | 0.00 | 31 | 1012.0 |
| 20260504174517 | 22 | 265 | 4.8 | 8.0 | 0.00 | 0.00 | 0.00 | 31 | 1012.1 |
| 20260504174017 | 22 | 214 | 3.2 | 8.0 | 0.00 | 0.00 | 0.00 | 32 | 1012.1 |
| 20260504173517 | 22 | 253 | 9.7 | 17.7 | 0.00 | 0.00 | 0.00 | 32 | 1012.2 |
| 20260504173017 | 22 | 251 | 3.2 | 8.0 | 0.00 | 0.00 | 0.00 | 32 | 1012.3 |
| 20260504172518 | 22 | 249 | 9.7 | 17.7 | 0.00 | 0.00 | 0.00 | 32 | 1012.4 |
| 20260504172017 | 22 | 208 | 3.2 | 6.4 | 0.00 | 0.00 | 0.00 | 32 | 1012.4 |
| 20260504171518 | 22 | 240 | 6.4 | 11.3 | 0.00 | 0.00 | 0.00 | 33 | 1012.4 |
| 20260504171018 | 21 | 217 | 8.0 | 17.7 | 0.00 | 0.00 | 0.00 | 33 | 1012.4 |
| 20260504170518 | 22 | 249 | 9.7 | 19.3 | 0.00 | 0.00 | 0.00 | 33 | 1012.5 |
| 20260504151019 | 19 | 188 | 3.2 | 9.7 | 0.00 | 0.00 | 0.00 | 41 | 1014.0 |
| 20260504150517 | 19 | 243 | 4.8 | 9.7 | 0.00 | 0.00 | 0.00 | 41 | 1014.0 |
| 20260504141017 | 17 | 218 | 4.8 | 8.0 | 0.00 | 0.00 | 0.00 | 50 | 1014.1 |
| 20260504140519 | 17 | 246 | 6.4 | 12.9 | 0.00 | 0.00 | 0.00 | 50 | 1014.2 |
| 20260504130517 | 15 | 249 | 9.7 | 17.7 | 0.00 | 0.00 | 0.00 | 60 | 1014.7 |
| 20260504110518 | 11 | 268 | 1.6 | 3.2 | 0.00 | 0.00 | 0.00 | 74 | 1015.1 |
| 20260504100518 | 10 | 257 | 6.4 | 9.7 | 0.00 | 0.00 | 0.00 | 71 | 1015.2 |
| 20260504081517 | 10 | 247 | 3.2 | 6.4 | 0.00 | 0.00 | 0.00 | 63 | 1015.0 |
| 20260504081017 | 10 | 285 | 3.2 | 6.4 | 0.00 | 0.00 | 0.00 | 63 | 1014.9 |
| 20260504080517 | 10 | 264 | 4.8 | 11.3 | 0.00 | 0.00 | 0.00 | 62 | 1015.0 |